HC6AC-17 Weather Reports


time (UTC)temp
C
wind
direction
speed
KPH
gust
KPH
rain 1hr
cm
rain 24hr
cm
rain mn
cm
humidity
%
barometer
mb
20260507152901 17 144 1.6 6.4 0.00 0.00 0.00 86 1021.0
20260507151901 15 144 3.2 6.4 0.00 0.00 0.00 86 1021.0
20260507150900 17 144 1.6 6.4 0.00 0.00 0.00 86 1021.0
20260507145859 15 144 3.2 6.4 0.00 0.00 0.00 86 1021.0
20260507144858 19 144 3.2 6.4 0.00 0.00 0.00 92 1021.0
20260507143858 17 144 3.2 6.4 0.00 0.00 0.00 92 1021.0
20260507142857 16 138 3.2 4.8 0.00 0.00 0.00 92 1021.0
20260507141856 16 138 3.2 4.8 0.00 0.00 0.00 92 1021.0
20260507140856 15 80 6.4 0.0 0.00 0.00 0.00 82 1021.0
20260507135855 13 80 6.4 0.0 0.00 0.00 0.00 82 1021.0
20260507134854 15 80 6.4 0.0 0.00 0.00 0.00 82 1021.0
20260507133854 13 80 6.4 0.0 0.00 0.00 0.00 82 1021.0
20260507132853 15 80 6.4 0.0 0.00 0.00 0.00 82 1021.0
20260507131852 13 80 6.4 0.0 0.00 0.00 0.00 82 1021.0
20260507130852 15 144 1.6 4.8 0.00 0.00 0.00 94 1021.0
20260507125851 15 144 1.6 4.8 0.00 0.00 0.00 94 1021.0
20260507124850 15 125 1.6 1.6 0.00 0.00 0.00 96 1021.0
20260507123850 13 125 1.6 1.6 0.00 0.00 0.00 96 1021.0
20260507122849 11 125 1.6 1.6 0.00 0.00 0.00 96 1020.0
20260507121848 10 125 1.6 3.2 0.00 0.00 0.00 96 1020.0
20260507120848 14 125 1.6 1.6 0.00 0.00 0.00 96 1020.0
20260507115847 12 125 1.6 1.6 0.00 0.00 0.00 96 1020.0
20260507114846 10 125 1.6 3.2 0.00 0.00 0.00 96 1020.0
20260507113845 15 117 1.6 6.4 0.00 0.00 0.00 96 1020.0
20260507112844 12 117 1.6 6.4 0.00 0.00 0.00 96 1019.0
20260507111844 11 117 3.2 6.4 0.00 0.00 0.00 96 1019.0
20260507110843 15 117 1.6 6.4 0.00 0.00 0.00 96 1019.0
20260507105842 13 117 3.2 6.4 0.00 0.00 0.00 96 1019.0
20260507104841 15 117 1.6 6.4 0.00 0.00 0.00 97 1019.0
20260507103841 13 117 3.2 6.4 0.00 0.00 0.00 97 1019.0
20260507102840 16 118 1.6 4.8 0.00 0.00 0.00 95 1019.0
20260507101839 14 118 1.6 4.8 0.00 0.00 0.00 95 1019.0
20260507100838 14 118 1.6 4.8 0.00 0.00 0.00 96 1019.0
20260507095838 12 118 1.6 4.8 0.00 0.00 0.00 96 1019.0
20260507094837 16 118 1.6 4.8 0.00 0.00 0.00 98 1019.0
20260507093836 14 116 1.6 1.6 0.00 0.00 0.00 98 1019.0
20260507092836 12 116 1.6 3.2 0.00 0.00 0.00 98 1019.0
20260507091835 15 116 1.6 1.6 0.00 0.00 0.00 98 1019.0
20260507090834 15 116 1.6 1.6 0.00 0.00 0.00 98 1019.0
20260507085834 13 116 1.6 3.2 0.00 0.00 0.00 98 1019.0
20260507084832 15 116 1.6 1.6 0.00 0.00 0.00 97 1019.0
20260507083832 13 116 1.6 3.2 0.00 0.00 0.00 97 1019.0
20260507082831 16 123 1.6 3.2 0.03 0.00 0.00 97 1019.0
20260507081830 14 123 1.6 3.2 0.03 0.00 0.00 97 1019.0
20260507080830 14 123 1.6 1.6 0.00 0.00 0.00 97 1019.0
20260507075828 12 123 1.6 3.2 0.03 0.00 0.00 97 1019.0
20260507074827 15 123 1.6 3.2 0.03 0.00 0.00 97 1019.0
20260507073826 15 133 1.6 4.8 0.03 0.00 0.00 98 1019.0
20260507072821 13 133 1.6 4.8 0.00 0.00 0.00 98 1020.0
20260507071820 12 133 1.6 4.8 0.03 0.00 0.00 98 1020.0
20260507070819 12 133 1.6 4.8 0.03 0.00 0.00 98 1020.0
20260507065819 14 133 1.6 4.8 0.03 0.00 0.00 98 1020.0
20260507064818 12 133 1.6 4.8 0.00 0.00 0.00 98 1020.0
20260507063817 11 133 1.6 4.8 0.03 0.00 0.00 98 1020.0
20260507062816 16 141 3.2 6.4 0.03 0.00 0.00 98 1020.0
20260507061816 15 141 1.6 6.4 0.00 0.00 0.00 98 1020.0
20260507060815 13 141 3.2 6.4 0.03 0.00 0.00 98 1020.0
20260507055814 13 141 3.2 6.4 0.03 0.00 0.00 97 1020.0
20260507054813 15 133 1.6 6.4 0.00 0.00 0.00 97 1020.0
20260507053813 13 133 1.6 6.4 0.03 0.00 0.00 97 1020.0
20260507052812 12 133 1.6 6.4 0.00 0.00 0.00 97 1021.0
20260507051811 10 133 3.2 6.4 0.03 0.00 0.00 97 1021.0
20260507050810 16 133 3.2 6.4 0.03 0.00 0.00 97 1021.0
20260507045810 14 133 1.6 6.4 0.03 0.00 0.00 97 1021.0
20260507044809 12 133 1.6 6.4 0.00 0.00 0.00 97 1021.0
20260507043808 11 133 3.2 6.4 0.03 0.00 0.00 97 1021.0
20260507042808 16 107 1.6 4.8 0.03 0.00 0.00 96 1022.0
20260507041807 15 107 1.6 4.8 0.00 0.00 0.00 97 1022.0
20260507040806 13 107 1.6 4.8 0.03 0.00 0.00 97 1022.0
20260507035806 15 107 1.6 4.8 0.00 0.00 0.00 97 1022.0
20260507034805 13 107 1.6 4.8 0.03 0.00 0.00 97 1022.0